Volver al catálogo

COSMOS 1823 DEB

LostLEO
NORAD 39809·DEBRIS·🇷🇺 Russia

Lanzado Feb 20, 1987 desde Plesetsk Cosmodrome

Loading…

Próximos Pases (próximas 24 horas)

TLE

ObsoletoSource: Space-Track

Época: Aug 10, 2026, 11:36 UTC

1 39809U 87020EH  26222.48366350  .00001039  00000-0  41112-2 0  9999
2 39809  73.7162 146.7697 0110330 267.0911  91.7528 12.87079802  9523

Sigue COSMOS 1823 DEB en tiempo real con AllMySat

Download on the App Store